Weather History for KSJT - February, 2013

Change the Weather History Date:

Tuesday, February 12, 2013

  Actual Average Record
Temperature  
Mean Temperature 51 °F 50 °F  
Max Temperature 65 °F 63 °F 90 °F (1922)
Min Temperature 37 °F 36 °F 15 °F (1948)
Degree Days  
Heating Degree Days 14 16  
Month to date heating degree days 112 198  
Since 1 July heating degree days 1359 1742  
Cooling Degree Days 0 0  
Month to date cooling degree days 0 0  
Year to date cooling degree days 12 1  
Growing Degree Days 1 (Base 50)    
Moisture  
Dew Point 40 °F    
Average Humidity 56    
Maximum Humidity 93    
Minimum Humidity 19    
Precipitation  
Precipitation 0.02 in 0.05 in 1.46 in (1912)
Month to date precipitation 0.26 0.52  
Year to date precipitation 1.69 1.45  
Snow  
Snow 0.00 in 0.00 in 1.00 in (1963)
Month to date snowfall T 0.1  
Since 1 July snowfall 2.8 1.9  
Snow Depth 0.00 in    
Sea Level Pressure  
Sea Level Pressure 29.93 in    
Wind  
Wind Speed 13 mph (NW)    
Max Wind Speed 33 mph    
Max Gust Speed 41 mph    
Visibility 8 miles    
Events Rain    
T = Trace of Precipitation, MM = Missing Value Source: NWS Daily Summary

Daily Weather History Graph

Daily Weather History Graph

Search for Another Location

Airport or City:

Trip Planner

Search our weather history database for the weather conditions in past years. The results will help you decide how hot, cold, wet, or windy it might be!

Date:

Astronomy

Feb. 12, 2013 Rise Set
Actual Time 7:25 AM CST 6:26 PM CST
Civil Twilight 7:00 AM CST 6:51 PM CST
Nautical Twilight 6:32 AM CST 7:20 PM CST
Astronomical Twilight 6:04 AM CST 7:48 PM CST
Moon 8:37 AM CST (2/12) 9:13 PM CST (2/12)
Length of Visible Light 11h 50m
Length of Day
11h 01m
Waxing Crescent, 7% of the Moon is Illuminated
Feb 12
Waxing Crescent
Feb 17
First Quarter
Feb 25
Full
Mar 4
Last Quarter
Mar 11
New

Hourly Weather History & Observations

Time (CST) Temp. Windchill Dew Point Humidity Pressure Visibility Wind Dir Wind Speed Gust Speed Precip Events Conditions
12:51 AM 50.0 °F - 43.0 °F 77% 29.91 in 10.0 mi East 11.5 mph - 0.00 in   Overcast
1:51 AM 50.0 °F - 43.0 °F 77% 29.87 in 10.0 mi East 11.5 mph - N/A   Overcast
2:41 AM 48.2 °F - 42.8 °F 82% 29.89 in 10.0 mi East 8.1 mph - N/A   Overcast
2:51 AM 48.9 °F - 44.1 °F 83% 29.87 in 9.0 mi East 8.1 mph - 0.00 in Rain Light Rain
3:30 AM 48.2 °F - 44.6 °F 87% 29.89 in 4.0 mi East 6.9 mph - 0.00 in Rain Light Rain
3:42 AM 48.2 °F - 46.4 °F 93% 29.88 in 2.0 mi East 5.8 mph - 0.00 in Rain Light Rain
3:51 AM 48.0 °F - 46.0 °F 93% 29.86 in 2.0 mi ESE 5.8 mph - 0.00 in   Overcast
4:51 AM 48.0 °F - 46.9 °F 96% 29.86 in 2.0 mi Calm Calm - 0.01 in   Overcast
5:08 AM 48.2 °F - 46.4 °F 93% 29.88 in 3.0 mi Calm Calm - N/A   Overcast
6:13 AM 48.2 °F - 46.4 °F 93% 29.88 in 3.0 mi ESE 3.5 mph - N/A   Overcast
6:18 AM 48.2 °F - 46.4 °F 93% 29.88 in 2.5 mi ESE 3.5 mph - N/A   Overcast
6:23 AM 48.2 °F - 46.4 °F 93% 29.88 in 3.0 mi ESE 3.5 mph - N/A   Overcast
6:47 AM 48.2 °F - 46.4 °F 93% 29.89 in 5.0 mi Calm Calm - N/A   Overcast
6:51 AM 48.0 °F - 46.9 °F 96% 29.89 in 5.0 mi Calm Calm - N/A   Overcast
7:37 AM 48.2 °F - 46.4 °F 93% 29.90 in 8.0 mi Calm Calm - N/A   Overcast
7:51 AM 48.9 °F - 46.9 °F 93% 29.89 in 6.0 mi Calm Calm - N/A   Overcast
8:00 AM 48.2 °F - 46.4 °F 93% 29.90 in 6.0 mi Calm Calm - N/A   Overcast
8:40 AM 50.0 °F - 48.2 °F 94% 29.92 in 8.0 mi Calm Calm - N/A   Overcast
8:51 AM 50.0 °F - 48.0 °F 93% 29.92 in 9.0 mi WSW 3.5 mph - N/A   Overcast
9:19 AM 53.6 °F - 50.0 °F 88% 29.93 in 8.0 mi WSW 6.9 mph - N/A   Mostly Cloudy
9:42 AM 55.4 °F - 50.0 °F 82% 29.94 in 10.0 mi West 11.5 mph - N/A   Mostly Cloudy
9:51 AM 55.0 °F - 50.0 °F 83% 29.94 in 10.0 mi WNW 10.4 mph - N/A   Mostly Cloudy
10:04 AM 55.4 °F - 48.2 °F 77% 29.95 in 10.0 mi WNW 16.1 mph - N/A   Scattered Clouds
10:51 AM 59.0 °F - 46.0 °F 62% 29.93 in 10.0 mi WNW 10.4 mph 19.6 mph N/A   Clear
11:51 AM 63.0 °F - 34.0 °F 34% 29.90 in 10.0 mi West 24.2 mph 35.7 mph N/A   Clear
12:51 PM 64.0 °F - 21.9 °F 20% 29.89 in 10.0 mi West 25.3 mph 38.0 mph N/A   Clear
1:51 PM 64.9 °F - 21.0 °F 19% 29.87 in 10.0 mi West 28.8 mph 38.0 mph N/A   Clear
2:51 PM 64.0 °F - 23.0 °F 21% 29.87 in 10.0 mi West 28.8 mph 36.8 mph N/A   Partly Cloudy
3:51 PM 63.0 °F - 25.0 °F 24% 29.88 in 10.0 mi WNW 27.6 mph 35.7 mph N/A   Partly Cloudy
4:51 PM 61.0 °F - 28.0 °F 29% 29.91 in 10.0 mi WNW 24.2 mph 33.4 mph N/A   Scattered Clouds
5:51 PM 55.0 °F - 32.0 °F 42% 29.96 in 10.0 mi NW 26.5 mph 33.4 mph N/A   Clear
6:51 PM 48.0 °F - 30.9 °F 52% 30.03 in 10.0 mi NW 17.3 mph - N/A   Clear
7:51 PM 45.0 °F 38.9 °F 30.0 °F 56% 30.08 in 10.0 mi NNW 12.7 mph - N/A   Clear
8:51 PM 44.1 °F 39.0 °F 30.0 °F 58% 30.12 in 10.0 mi NNW 9.2 mph - N/A   Clear
9:51 PM 42.1 °F 36.1 °F 30.0 °F 62% 30.13 in 10.0 mi NW 10.4 mph - N/A   Clear
10:51 PM 39.9 °F 34.5 °F 30.0 °F 68% 30.12 in 10.0 mi NNW 8.1 mph - N/A   Clear
11:51 PM 37.9 °F 32.7 °F 30.0 °F 73% 30.12 in 10.0 mi North 6.9 mph - N/A   Clear